AAL2031 KATL-KDFW

Flight info

Callsign AAL2031
Flight time 1h 56m
Altitude 30000
Route KAJIN2 STNGA MLU YUYUN BEREE3
Aircraft B738/M-SDE2E3FGHIRWXY/LB1

Departure

Time 2026-05-05 01:56
Airport Hartsfield Jackson Atlanta International Airport (KATL)

Arrival

Time 2026-05-05 03:53
Airport Dallas Fort Worth International Airport (KDFW)
Time Latitude Longitude Altitude Speed Heading
2026-05-05 01:05 33.63840 -84.44198 1005 ft 0 kts 269°
2026-05-05 01:40 33.63840 -84.44185 1005 ft 4 kts 269°
2026-05-05 01:40 33.63840 -84.44153 1005 ft 4 kts 277°
2026-05-05 01:40 33.63833 -84.44124 1005 ft 4 kts 314°
2026-05-05 01:40 33.63823 -84.44115 1005 ft 0 kts
2026-05-05 01:44 33.63836 -84.44115 1005 ft 6 kts
2026-05-05 01:44 33.63908 -84.44115 1005 ft 14 kts
2026-05-05 01:44 33.64013 -84.44115 1005 ft 16 kts 359°
2026-05-05 01:45 33.64130 -84.44115 1005 ft 17 kts 360°
2026-05-05 01:45 33.64242 -84.44115 1005 ft 15 kts 360°
2026-05-05 01:45 33.64325 -84.44116 1005 ft 8 kts 360°
2026-05-05 01:45 33.64334 -84.44116 1005 ft 0 kts 360°
2026-05-05 01:46 33.64336 -84.44116 1005 ft 2 kts 360°
2026-05-05 01:47 33.64392 -84.44110 1005 ft 11 kts 25°
2026-05-05 01:47 33.64424 -84.44007 1005 ft 16 kts 81°
2026-05-05 01:47 33.64442 -84.43864 1005 ft 18 kts 80°
2026-05-05 01:47 33.64457 -84.43706 1005 ft 19 kts 87°
2026-05-05 01:48 33.64459 -84.43542 1005 ft 20 kts 90°
2026-05-05 01:48 33.64459 -84.43375 1005 ft 20 kts 90°
2026-05-05 01:48 33.64459 -84.43200 1006 ft 21 kts 90°
2026-05-05 01:48 33.64459 -84.43023 1005 ft 22 kts 89°
2026-05-05 01:49 33.64459 -84.42838 1005 ft 23 kts 90°
2026-05-05 01:49 33.64468 -84.42659 1005 ft 20 kts 89°
2026-05-05 01:49 33.64469 -84.42494 1005 ft 21 kts 90°
2026-05-05 01:49 33.64468 -84.42321 1005 ft 19 kts 89°
2026-05-05 01:50 33.64511 -84.42178 1005 ft 19 kts 60°
2026-05-05 01:50 33.64542 -84.42028 1005 ft 18 kts 90°
2026-05-05 01:50 33.64541 -84.41877 1005 ft 18 kts 90°
2026-05-05 01:50 33.64542 -84.41730 1006 ft 18 kts 89°
2026-05-05 01:51 33.64542 -84.41580 1006 ft 18 kts 90°
2026-05-05 01:51 33.64542 -84.41431 1006 ft 18 kts 90°
2026-05-05 01:51 33.64542 -84.41280 1006 ft 18 kts 90°
2026-05-05 01:51 33.64542 -84.41124 1006 ft 19 kts 90°
2026-05-05 01:52 33.64542 -84.40973 1005 ft 18 kts 90°
2026-05-05 01:52 33.64546 -84.40826 1005 ft 17 kts 75°
2026-05-05 01:52 33.64570 -84.40690 1005 ft 16 kts 89°
2026-05-05 01:52 33.64584 -84.40584 1004 ft 7 kts 49°
2026-05-05 01:53 33.64591 -84.40577 1004 ft 0 kts 36°
2026-05-05 01:54 33.64592 -84.40577 1004 ft 1 kts 36°
2026-05-05 01:55 33.64633 -84.40569 1003 ft 12 kts 354°
2026-05-05 01:55 33.64680 -84.40657 1003 ft 15 kts 270°
2026-05-05 01:55 33.64680 -84.40827 1005 ft 33 kts 270°
2026-05-05 01:55 33.64679 -84.41398 1008 ft 102 kts 269°
2026-05-05 01:56 33.64679 -84.42500 1004 ft 160 kts 269°
2026-05-05 01:56 33.64670 -84.43973 1374 ft 179 kts 268°
2026-05-05 01:56 33.64625 -84.45437 2281 ft 174 kts 266°
2026-05-05 01:56 33.64791 -84.46948 2801 ft 196 kts 278°
2026-05-05 01:57 33.65122 -84.48647 3086 ft 218 kts 279°
2026-05-05 01:57 33.65478 -84.50493 3377 ft 236 kts 279°
2026-05-05 01:57 33.65841 -84.52453 3943 ft 241 kts 279°
2026-05-05 01:57 33.66206 -84.54431 4588 ft 245 kts 279°
2026-05-05 01:58 33.66599 -84.56439 5206 ft 251 kts 280°
2026-05-05 01:58 33.67016 -84.58559 5636 ft 268 kts 281°
2026-05-05 01:58 33.67425 -84.60767 6379 ft 272 kts 279°
2026-05-05 01:58 33.67805 -84.62989 7184 ft 272 kts 279°
2026-05-05 01:59 33.68177 -84.65199 7949 ft 274 kts 279°
2026-05-05 01:59 33.68562 -84.67484 8729 ft 277 kts 279°
2026-05-05 01:59 33.68940 -84.69723 9496 ft 279 kts 279°
2026-05-05 01:59 33.69326 -84.72010 10028 ft 278 kts 280°
2026-05-05 02:00 33.69718 -84.74354 10355 ft 297 kts 278°
2026-05-05 02:00 33.69685 -84.76897 10502 ft 317 kts 255°
2026-05-05 02:00 33.68946 -84.79483 10694 ft 338 kts 249°
2026-05-05 02:00 33.68068 -84.82182 10854 ft 357 kts 248°
2026-05-05 02:01 33.67122 -84.85034 11005 ft 376 kts 248°
2026-05-05 02:01 33.66145 -84.87989 11399 ft 385 kts 248°
2026-05-05 02:01 33.65165 -84.90980 11963 ft 387 kts 249°
2026-05-05 02:01 33.64180 -84.94006 12574 ft 389 kts 249°
2026-05-05 02:02 33.63197 -84.97040 13162 ft 392 kts 249°
2026-05-05 02:02 33.62205 -85.00110 13708 ft 395 kts 249°
2026-05-05 02:02 33.61209 -85.03190 14222 ft 398 kts 249°
2026-05-05 02:02 33.60205 -85.06298 14768 ft 398 kts 249°
2026-05-05 02:03 33.59198 -85.09409 15352 ft 399 kts 249°
2026-05-05 02:03 33.58202 -85.12483 15791 ft 402 kts 249°
2026-05-05 02:03 33.57182 -85.15629 16281 ft 405 kts 249°
2026-05-05 02:03 33.56146 -85.18820 16789 ft 407 kts 249°
2026-05-05 02:04 33.55128 -85.21957 17265 ft 409 kts 250°
2026-05-05 02:04 33.54259 -85.25209 17725 ft 411 kts 256°
2026-05-05 02:04 33.53602 -85.28565 18198 ft 413 kts 258°
2026-05-05 02:04 33.53022 -85.31955 18574 ft 415 kts 259°
2026-05-05 02:05 33.52456 -85.35356 18974 ft 417 kts 259°
2026-05-05 02:05 33.51877 -85.38777 19376 ft 419 kts 259°
2026-05-05 02:05 33.51280 -85.42205 19768 ft 421 kts 258°
2026-05-05 02:05 33.50671 -85.45604 20163 ft 423 kts 258°
2026-05-05 02:06 33.50041 -85.49057 20557 ft 425 kts 258°
2026-05-05 02:06 33.49401 -85.52522 20922 ft 427 kts 258°
2026-05-05 02:06 33.48753 -85.56000 21277 ft 429 kts 258°
2026-05-05 02:06 33.48098 -85.59501 21633 ft 431 kts 258°
2026-05-05 02:07 33.47441 -85.63008 21980 ft 433 kts 258°
2026-05-05 02:07 33.46778 -85.66538 22324 ft 435 kts 258°
2026-05-05 02:07 33.46112 -85.70081 22644 ft 437 kts 258°
2026-05-05 02:07 33.45451 -85.73593 22947 ft 439 kts 258°
2026-05-05 02:08 33.44778 -85.77168 23258 ft 441 kts 258°
2026-05-05 02:08 33.44102 -85.80750 23549 ft 442 kts 258°
2026-05-05 02:08 33.43420 -85.84353 23807 ft 444 kts 259°
2026-05-05 02:08 33.42737 -85.87964 24084 ft 445 kts 259°
2026-05-05 02:09 33.42050 -85.91582 24360 ft 445 kts 259°
2026-05-05 02:09 33.41363 -85.95200 24618 ft 446 kts 259°
2026-05-05 02:09 33.40670 -85.98839 24866 ft 448 kts 259°
2026-05-05 02:09 33.39977 -86.02477 25107 ft 449 kts 259°
2026-05-05 02:10 33.39281 -86.06122 25405 ft 449 kts 259°
2026-05-05 02:10 33.38586 -86.09752 25786 ft 446 kts 259°
2026-05-05 02:10 33.37894 -86.13358 26216 ft 443 kts 259°
2026-05-05 02:10 33.37205 -86.16946 26617 ft 441 kts 260°
2026-05-05 02:11 33.36526 -86.20474 26971 ft 439 kts 261°
2026-05-05 02:11 33.35842 -86.24022 27374 ft 437 kts 261°
2026-05-05 02:11 33.35159 -86.27564 27772 ft 435 kts 261°
2026-05-05 02:11 33.34479 -86.31084 28138 ft 434 kts 261°
2026-05-05 02:12 33.33801 -86.34587 28521 ft 432 kts 261°
2026-05-05 02:12 33.32449 -86.41556 29380 ft 427 kts 262°
2026-05-05 02:12 33.31777 -86.45008 29847 ft 424 kts 262°
2026-05-05 02:13 33.31108 -86.48444 30009 ft 425 kts 262°
2026-05-05 02:13 33.29767 -86.55324 30005 ft 424 kts 262°
2026-05-05 02:14 33.28435 -86.62127 30013 ft 422 kts 262°
2026-05-05 02:14 33.27096 -86.68943 30020 ft 420 kts 262°
2026-05-05 02:15 33.25759 -86.75734 30017 ft 419 kts 262°
2026-05-05 02:15 33.24423 -86.82495 30020 ft 418 kts 262°
2026-05-05 02:16 33.23080 -86.89271 30027 ft 418 kts 262°
2026-05-05 02:16 33.21745 -86.95988 30012 ft 419 kts 263°
2026-05-05 02:17 33.20387 -87.02801 30016 ft 419 kts 263°
2026-05-05 02:17 33.19038 -87.09543 30011 ft 420 kts 263°
2026-05-05 02:18 33.17674 -87.16344 30004 ft 421 kts 263°
2026-05-05 02:18 33.16304 -87.23150 29972 ft 422 kts 262°
2026-05-05 02:19 33.14937 -87.29925 29967 ft 422 kts 262°
2026-05-05 02:19 33.13561 -87.36725 29962 ft 421 kts 263°
2026-05-05 02:20 33.12180 -87.43528 29972 ft 419 kts 263°
2026-05-05 02:20 33.11071 -87.50315 29974 ft 414 kts 268°
2026-05-05 02:21 33.10361 -87.57106 29973 ft 412 kts 269°
2026-05-05 02:21 33.09669 -87.63877 29973 ft 411 kts 269°
2026-05-05 02:22 33.08933 -87.70639 29971 ft 411 kts 268°
2026-05-05 02:22 33.08173 -87.77355 29969 ft 410 kts 268°
2026-05-05 02:23 33.07395 -87.84121 29971 ft 409 kts 268°
2026-05-05 02:23 33.06624 -87.90779 29973 ft 408 kts 268°
2026-05-05 02:24 33.05846 -87.97478 29974 ft 408 kts 268°
2026-05-05 02:24 33.05064 -88.04183 29968 ft 408 kts 268°
2026-05-05 02:25 33.04277 -88.10892 29958 ft 408 kts 268°
2026-05-05 02:25 33.03489 -88.17585 29974 ft 408 kts 268°
2026-05-05 02:26 33.02830 -88.23148 29976 ft 407 kts 268°
2026-05-05 02:26 33.01907 -88.30916 29980 ft 407 kts 268°
2026-05-05 02:27 33.01108 -88.37604 29982 ft 408 kts 268°
2026-05-05 02:27 33.00440 -88.43173 29981 ft 408 kts 268°
2026-05-05 02:28 32.99634 -88.49861 29956 ft 408 kts 268°
2026-05-05 02:28 32.98824 -88.56550 29987 ft 408 kts 268°
2026-05-05 02:29 32.98010 -88.63244 29941 ft 408 kts 268°
2026-05-05 02:29 32.97193 -88.69934 29963 ft 408 kts 268°
2026-05-05 02:30 32.96378 -88.76578 29963 ft 408 kts 268°
2026-05-05 02:30 32.95555 -88.83259 29980 ft 408 kts 268°
2026-05-05 02:31 32.94725 -88.89954 29970 ft 407 kts 268°
2026-05-05 02:31 32.93895 -88.96626 29957 ft 407 kts 268°
2026-05-05 02:32 32.93068 -89.03250 29931 ft 407 kts 268°
2026-05-05 02:32 32.92230 -89.09924 29971 ft 407 kts 268°
2026-05-05 02:33 32.91390 -89.16592 29970 ft 407 kts 268°
2026-05-05 02:33 32.90547 -89.23251 29964 ft 407 kts 268°
2026-05-05 02:34 32.89701 -89.29905 29938 ft 407 kts 268°
2026-05-05 02:34 32.88856 -89.36519 29932 ft 406 kts 268°
2026-05-05 02:35 32.88004 -89.43158 29908 ft 406 kts 268°
2026-05-05 02:35 32.87149 -89.49807 29896 ft 406 kts 268°
2026-05-05 02:36 32.86291 -89.56437 29906 ft 406 kts 268°
2026-05-05 02:36 32.85429 -89.63079 29904 ft 406 kts 268°
2026-05-05 02:37 32.84563 -89.69713 29926 ft 406 kts 268°
2026-05-05 02:37 32.83696 -89.76334 29928 ft 406 kts 268°
2026-05-05 02:38 32.82828 -89.82932 29926 ft 406 kts 268°
2026-05-05 02:38 32.81949 -89.89584 29929 ft 406 kts 268°
2026-05-05 02:39 32.81074 -89.96174 29930 ft 406 kts 268°
2026-05-05 02:39 32.80186 -90.02846 29944 ft 405 kts 268°
2026-05-05 02:40 32.79306 -90.09416 29947 ft 405 kts 268°
2026-05-05 02:40 32.78417 -90.16033 29959 ft 405 kts 268°
2026-05-05 02:41 32.77526 -90.22640 29966 ft 405 kts 268°
2026-05-05 02:41 32.76630 -90.29257 29960 ft 405 kts 268°
2026-05-05 02:42 32.75731 -90.35868 29951 ft 405 kts 268°
2026-05-05 02:42 32.74828 -90.42486 29953 ft 405 kts 268°
2026-05-05 02:43 32.73923 -90.49086 29950 ft 405 kts 268°
2026-05-05 02:43 32.73014 -90.55691 29953 ft 405 kts 268°
2026-05-05 02:44 32.72101 -90.62299 29969 ft 405 kts 268°
2026-05-05 02:44 32.71188 -90.68877 29966 ft 405 kts 268°
2026-05-05 02:45 32.70267 -90.75490 29963 ft 405 kts 268°
2026-05-05 02:45 32.69344 -90.82083 29962 ft 405 kts 268°
2026-05-05 02:46 32.68418 -90.88685 29968 ft 405 kts 268°
2026-05-05 02:46 32.67486 -90.95298 29963 ft 405 kts 268°
2026-05-05 02:47 32.66558 -91.01853 29950 ft 406 kts 268°
2026-05-05 02:47 32.65619 -91.08462 29942 ft 406 kts 268°
2026-05-05 02:48 32.64677 -91.15070 29930 ft 406 kts 268°
2026-05-05 02:48 32.63732 -91.21666 29936 ft 405 kts 268°
2026-05-05 02:49 32.62786 -91.28245 29942 ft 404 kts 268°
2026-05-05 02:49 32.61843 -91.34780 29947 ft 403 kts 268°
2026-05-05 02:50 32.60895 -91.41329 29923 ft 403 kts 268°
2026-05-05 02:50 32.59942 -91.47881 29947 ft 402 kts 268°
2026-05-05 02:51 32.58990 -91.54404 29932 ft 402 kts 268°
2026-05-05 02:51 32.58034 -91.60936 29951 ft 402 kts 268°
2026-05-05 02:52 32.57074 -91.67471 29952 ft 402 kts 268°
2026-05-05 02:52 32.56110 -91.74010 29948 ft 403 kts 268°
2026-05-05 02:53 32.55146 -91.80521 29949 ft 403 kts 268°
2026-05-05 02:53 32.54170 -91.87085 29943 ft 404 kts 268°
2026-05-05 02:54 32.53192 -91.93640 29911 ft 404 kts 267°
2026-05-05 02:54 32.52211 -92.00198 29922 ft 404 kts 267°
2026-05-05 02:55 32.51426 -92.06777 29930 ft 400 kts 271°
2026-05-05 02:55 32.50971 -92.13300 29925 ft 400 kts 272°
2026-05-05 02:56 32.50512 -92.19871 29927 ft 401 kts 271°
2026-05-05 02:56 32.50037 -92.26461 29928 ft 401 kts 271°
2026-05-05 02:57 32.49552 -92.33047 29919 ft 401 kts 271°
2026-05-05 02:57 32.49061 -92.39645 29922 ft 401 kts 271°
2026-05-05 02:58 32.48567 -92.46236 29923 ft 402 kts 271°
2026-05-05 02:58 32.48073 -92.52788 29928 ft 402 kts 271°
2026-05-05 02:59 32.47571 -92.59389 29929 ft 402 kts 271°
2026-05-05 02:59 32.47067 -92.65988 29923 ft 402 kts 271°
2026-05-05 03:00 32.46560 -92.72573 29919 ft 401 kts 271°
2026-05-05 03:00 32.46049 -92.79170 29918 ft 401 kts 271°
2026-05-05 03:01 32.45536 -92.85752 29913 ft 401 kts 271°
2026-05-05 03:01 32.45023 -92.92291 29903 ft 401 kts 271°
2026-05-05 03:02 32.44519 -92.98866 29916 ft 401 kts 271°
2026-05-05 03:02 32.44019 -93.05443 29873 ft 401 kts 271°
2026-05-05 03:03 32.43515 -93.12007 29900 ft 400 kts 271°
2026-05-05 03:03 32.43006 -93.18576 29904 ft 400 kts 271°
2026-05-05 03:04 32.42495 -93.25129 29898 ft 399 kts 271°
2026-05-05 03:04 32.41981 -93.31672 29904 ft 399 kts 271°
2026-05-05 03:05 32.41463 -93.38229 29898 ft 400 kts 270°
2026-05-05 03:05 32.40944 -93.44738 29895 ft 399 kts 270°
2026-05-05 03:06 32.40419 -93.51291 29895 ft 400 kts 270°
2026-05-05 03:06 32.39892 -93.57834 29898 ft 400 kts 270°
2026-05-05 03:07 32.39360 -93.64383 29902 ft 400 kts 270°
2026-05-05 03:07 32.38824 -93.70942 29895 ft 400 kts 270°
2026-05-05 03:08 32.38286 -93.77491 29897 ft 400 kts 270°
2026-05-05 03:08 32.37744 -93.84043 29894 ft 400 kts 270°
2026-05-05 03:09 32.37197 -93.90603 29896 ft 400 kts 270°
2026-05-05 03:09 32.36647 -93.97173 29890 ft 401 kts 270°
2026-05-05 03:10 32.36096 -94.03698 29892 ft 401 kts 270°
2026-05-05 03:10 32.35539 -94.10259 29870 ft 401 kts 270°
2026-05-05 03:11 32.34978 -94.16830 29867 ft 401 kts 270°
2026-05-05 03:11 32.34414 -94.23401 29863 ft 402 kts 270°
2026-05-05 03:12 32.33844 -94.29986 29854 ft 402 kts 270°
2026-05-05 03:12 32.33271 -94.36581 29858 ft 403 kts 270°
2026-05-05 03:13 32.32697 -94.43140 29861 ft 404 kts 270°
2026-05-05 03:13 32.32115 -94.49748 29855 ft 404 kts 270°
2026-05-05 03:14 32.31530 -94.56354 29856 ft 404 kts 269°
2026-05-05 03:14 32.30941 -94.62964 29852 ft 405 kts 269°
2026-05-05 03:15 32.30447 -94.68475 29860 ft 406 kts 269°
2026-05-05 03:15 32.29849 -94.75122 29868 ft 407 kts 269°
2026-05-05 03:16 32.29245 -94.81789 29869 ft 408 kts 269°
2026-05-05 03:16 32.28635 -94.88477 29875 ft 409 kts 269°
2026-05-05 03:17 32.28023 -94.95160 29874 ft 409 kts 269°
2026-05-05 03:17 32.27402 -95.01841 29861 ft 410 kts 269°
2026-05-05 03:18 32.26690 -95.08532 29872 ft 410 kts 268°
2026-05-05 03:18 32.25962 -95.15222 29859 ft 411 kts 268°
2026-05-05 03:19 32.25199 -95.25257 29851 ft 405 kts 276°
2026-05-05 03:19 32.25420 -95.31866 29852 ft 405 kts 276°
2026-05-05 03:20 32.25605 -95.38512 29850 ft 405 kts 276°
2026-05-05 03:20 32.25776 -95.45167 29847 ft 405 kts 276°
2026-05-05 03:21 32.25943 -95.51815 29854 ft 405 kts 276°
2026-05-05 03:21 32.26106 -95.58432 29843 ft 405 kts 276°
2026-05-05 03:22 32.26266 -95.65075 29850 ft 405 kts 276°
2026-05-05 03:22 32.26424 -95.71723 29823 ft 405 kts 275°
2026-05-05 03:23 32.26501 -95.75052 29591 ft 407 kts 275°
2026-05-05 03:23 32.26577 -95.78429 28824 ft 409 kts 275°
2026-05-05 03:23 32.26649 -95.81780 27976 ft 408 kts 275°
2026-05-05 03:23 32.26716 -95.85050 27871 ft 391 kts 275°
2026-05-05 03:24 32.26783 -95.88222 27683 ft 378 kts 275°
2026-05-05 03:24 32.26846 -95.91272 27503 ft 365 kts 275°
2026-05-05 03:24 32.26909 -95.94237 27167 ft 363 kts 275°
2026-05-05 03:24 32.26978 -95.97240 26637 ft 367 kts 275°
2026-05-05 03:25 32.27045 -96.00245 26122 ft 364 kts 275°
2026-05-05 03:25 32.27109 -96.03225 25645 ft 361 kts 275°
2026-05-05 03:25 32.27171 -96.06143 25173 ft 358 kts 275°
2026-05-05 03:25 32.27233 -96.09067 24697 ft 355 kts 274°
2026-05-05 03:26 32.27295 -96.11979 24208 ft 353 kts 274°
2026-05-05 03:26 32.27355 -96.14872 23740 ft 351 kts 274°
2026-05-05 03:26 32.27414 -96.17745 23243 ft 350 kts 274°
2026-05-05 03:26 32.27473 -96.20622 22723 ft 348 kts 274°
2026-05-05 03:27 32.27531 -96.23473 22228 ft 346 kts 274°
2026-05-05 03:27 32.27586 -96.26302 21768 ft 344 kts 274°
2026-05-05 03:27 32.27661 -96.29145 21314 ft 347 kts 277°
2026-05-05 03:27 32.28259 -96.31867 20840 ft 347 kts 292°
2026-05-05 03:28 32.29410 -96.34363 20361 ft 348 kts 303°
2026-05-05 03:28 32.31017 -96.36531 19736 ft 352 kts 311°
2026-05-05 03:28 32.32774 -96.38541 19241 ft 351 kts 313°
2026-05-05 03:28 32.34546 -96.40519 18772 ft 349 kts 313°
2026-05-05 03:29 32.36305 -96.42489 18320 ft 348 kts 313°
2026-05-05 03:29 32.38054 -96.44467 17823 ft 346 kts 313°
2026-05-05 03:29 32.39785 -96.46440 17358 ft 344 kts 313°
2026-05-05 03:29 32.41487 -96.48391 17038 ft 336 kts 312°
2026-05-05 03:30 32.43151 -96.50304 16680 ft 332 kts 312°
2026-05-05 03:30 32.44808 -96.52213 16158 ft 333 kts 312°
2026-05-05 03:30 32.46433 -96.54087 15895 ft 328 kts 312°
2026-05-05 03:30 32.48057 -96.55957 15634 ft 322 kts 312°
2026-05-05 03:31 32.49651 -96.57792 15377 ft 316 kts 313°
2026-05-05 03:31 32.51221 -96.59589 15134 ft 311 kts 313°
2026-05-05 03:31 32.52766 -96.61357 14897 ft 309 kts 313°
2026-05-05 03:31 32.54304 -96.63119 14651 ft 305 kts 312°
2026-05-05 03:32 32.55829 -96.64867 14357 ft 305 kts 312°
2026-05-05 03:32 32.57367 -96.66626 14016 ft 308 kts 313°
2026-05-05 03:32 32.58917 -96.68375 13664 ft 309 kts 313°
2026-05-05 03:32 32.60444 -96.70089 13473 ft 301 kts 313°
2026-05-05 03:33 32.61945 -96.71775 13305 ft 293 kts 313°
2026-05-05 03:33 32.63401 -96.73415 13171 ft 284 kts 313°
2026-05-05 03:33 32.64809 -96.75002 13045 ft 275 kts 313°
2026-05-05 03:33 32.66182 -96.76553 12962 ft 269 kts 312°
2026-05-05 03:34 32.67523 -96.78072 12872 ft 266 kts 312°
2026-05-05 03:34 32.68857 -96.79587 12780 ft 266 kts 312°
2026-05-05 03:34 32.69700 -96.80545 12719 ft 265 kts 312°
2026-05-05 03:35 32.70945 -96.81959 12636 ft 265 kts 312°
2026-05-05 03:35 32.72259 -96.83453 12543 ft 266 kts 312°
2026-05-05 03:36 32.73597 -96.84974 12444 ft 267 kts 312°
2026-05-05 03:36 32.74943 -96.86503 12342 ft 268 kts 312°
2026-05-05 03:36 32.76300 -96.88046 12252 ft 270 kts 312°
2026-05-05 03:36 32.77657 -96.89590 12139 ft 271 kts 312°
2026-05-05 03:37 32.79172 -96.90950 12001 ft 280 kts 331°
2026-05-05 03:37 32.81096 -96.91545 11815 ft 293 kts 349°
2026-05-05 03:37 32.83151 -96.91597 11593 ft 297 kts 354°
2026-05-05 03:37 32.85178 -96.91550 11388 ft 292 kts 355°
2026-05-05 03:38 32.87200 -96.91498 11116 ft 287 kts 355°
2026-05-05 03:38 32.89180 -96.91459 10887 ft 283 kts 354°
2026-05-05 03:38 32.91127 -96.91430 10758 ft 274 kts 354°
2026-05-05 03:38 32.92987 -96.91409 10648 ft 260 kts 354°
2026-05-05 03:39 32.94756 -96.91393 10557 ft 247 kts 353°
2026-05-05 03:39 32.96416 -96.91379 10309 ft 236 kts 353°
2026-05-05 03:39 32.98070 -96.91371 9952 ft 233 kts 352°
2026-05-05 03:39 32.99671 -96.91361 9677 ft 226 kts 352°
2026-05-05 03:40 33.01231 -96.91351 9497 ft 224 kts 352°
2026-05-05 03:40 33.02802 -96.91344 9305 ft 227 kts 352°
2026-05-05 03:40 33.04374 -96.91338 9127 ft 231 kts 352°
2026-05-05 03:40 33.05989 -96.91330 8904 ft 233 kts 353°
2026-05-05 03:41 33.07616 -96.91320 8711 ft 234 kts 353°
2026-05-05 03:41 33.09242 -96.91309 8525 ft 232 kts 353°
2026-05-05 03:41 33.10834 -96.91296 8343 ft 226 kts 353°
2026-05-05 03:41 33.12387 -96.91285 8144 ft 221 kts 353°
2026-05-05 03:42 33.13925 -96.91275 7966 ft 220 kts 353°
2026-05-05 03:42 33.15454 -96.91266 7798 ft 220 kts 353°
2026-05-05 03:42 33.15707 -96.91265 7767 ft 220 kts 353°
2026-05-05 03:42 33.17171 -96.91256 7599 ft 220 kts 353°
2026-05-05 03:43 33.18697 -96.91247 7425 ft 220 kts 353°
2026-05-05 03:43 33.20226 -96.91300 7217 ft 217 kts 341°
2026-05-05 03:43 33.21451 -96.92137 7035 ft 197 kts 302°
2026-05-05 03:43 33.22027 -96.93523 6895 ft 181 kts 278°
2026-05-05 03:44 33.22073 -96.94972 6738 ft 172 kts 258°
2026-05-05 03:44 33.21736 -96.96322 6609 ft 169 kts 250°
2026-05-05 03:44 33.21334 -96.97645 6474 ft 170 kts 249°
2026-05-05 03:44 33.20927 -96.98969 6349 ft 170 kts 249°
2026-05-05 03:45 33.20520 -97.00294 6223 ft 170 kts 249°
2026-05-05 03:45 33.20009 -97.01544 6048 ft 172 kts 229°
2026-05-05 03:45 33.18985 -97.02318 5828 ft 182 kts 200°
2026-05-05 03:45 33.17694 -97.02423 5504 ft 189 kts 186°
2026-05-05 03:46 33.16403 -97.02427 5244 ft 182 kts 187°
2026-05-05 03:46 33.15150 -97.02440 5006 ft 175 kts 187°
2026-05-05 03:46 33.13980 -97.02448 4776 ft 162 kts 187°
2026-05-05 03:46 33.12874 -97.02456 4581 ft 157 kts 187°
2026-05-05 03:47 33.11791 -97.02465 4389 ft 154 kts 187°
2026-05-05 03:47 33.10740 -97.02471 4223 ft 145 kts 186°
2026-05-05 03:47 33.09762 -97.02476 4011 ft 135 kts 187°
2026-05-05 03:47 33.08821 -97.02484 3827 ft 133 kts 188°
2026-05-05 03:48 33.07915 -97.02491 3672 ft 132 kts 188°
2026-05-05 03:48 33.07007 -97.02497 3491 ft 128 kts 187°
2026-05-05 03:48 33.06121 -97.02502 3329 ft 126 kts 186°
2026-05-05 03:48 33.05253 -97.02504 3175 ft 123 kts 185°
2026-05-05 03:49 33.04408 -97.02504 2991 ft 119 kts 186°
2026-05-05 03:49 33.03594 -97.02509 2805 ft 116 kts 186°
2026-05-05 03:49 33.02786 -97.02525 2626 ft 116 kts 185°
2026-05-05 03:49 33.01979 -97.02522 2487 ft 115 kts 184°
2026-05-05 03:50 33.01170 -97.02527 2369 ft 119 kts 185°
2026-05-05 03:50 33.00331 -97.02522 2277 ft 121 kts 185°
2026-05-05 03:50 32.99489 -97.02541 2056 ft 122 kts 185°
2026-05-05 03:50 32.98651 -97.02579 1873 ft 123 kts 181°
2026-05-05 03:51 32.97792 -97.02571 1741 ft 123 kts 181°
2026-05-05 03:51 32.96932 -97.02557 1578 ft 124 kts 182°
2026-05-05 03:51 32.96054 -97.02574 1393 ft 126 kts 182°
2026-05-05 03:51 32.95141 -97.02585 1343 ft 135 kts 178°
2026-05-05 03:52 32.94142 -97.02584 1113 ft 150 kts 180°
2026-05-05 03:52 32.93107 -97.02596 937 ft 146 kts 178°
2026-05-05 03:52 32.92105 -97.02593 740 ft 142 kts 180°
2026-05-05 03:52 32.91141 -97.02596 599 ft 130 kts 180°
2026-05-05 03:53 32.90436 -97.02604 597 ft 71 kts 180°
2026-05-05 03:53 32.90135 -97.02609 597 ft 29 kts 184°
2026-05-05 03:53 32.89947 -97.02670 597 ft 28 kts 207°
2026-05-05 03:53 32.89785 -97.02780 597 ft 24 kts 208°
2026-05-05 03:54 32.89637 -97.02803 597 ft 21 kts 180°
2026-05-05 03:54 32.89493 -97.02805 597 ft 19 kts 179°
2026-05-05 03:54 32.89398 -97.02819 597 ft 10 kts 231°
2026-05-05 03:54 32.89394 -97.02903 597 ft 10 kts 270°
2026-05-05 03:55 32.89395 -97.03049 597 ft 23 kts 272°
2026-05-05 03:55 32.89394 -97.03240 597 ft 22 kts 267°
2026-05-05 03:55 32.89380 -97.03381 597 ft 14 kts 270°
2026-05-05 03:55 32.89379 -97.03507 597 ft 17 kts 271°
2026-05-05 03:56 32.89380 -97.03641 597 ft 13 kts 270°
2026-05-05 03:56 32.89382 -97.03742 597 ft 7 kts 271°
2026-05-05 03:56 32.89381 -97.03778 597 ft 2 kts 262°
2026-05-05 03:56 32.89361 -97.03797 597 ft 5 kts 199°
2026-05-05 03:57 32.89337 -97.03802 597 ft 2 kts 189°
2026-05-05 03:57 32.89330 -97.03804 597 ft 0 kts 191°